Location: Campillo
(40.8621°N, 4.2488°W)
Time: 13:05:54
(UTC+00:00)

Cosmos 1470 Rocket - Pass Details

Date: 11 May 2021
Orbit: 604 x 633 km, 82.5° (Epoch: 13 June)

Event Time Altitude Azimuth Distance (km) Brightness Sun altitude
Rises 20:46:48 0° 1° (N) 2,936 7.6 -14.0°
Reaches altitude 10° 20:49:14 10° 11° (N) 2,024 6.6 -14.4°
Maximum altitude 20:53:20 34° 76° (ENE) 1,049 4.4 -15.0°
Enters shadow 20:55:02 25° 118° (ESE) 1,269 4.6 -15.2°
